Miscellaneous Local Product
Issued by NWS North Platte, NE

Home | Current Version | Previous Version | Text Only | Print | Product List | Glossary On
Versions: 1 2 3 4 5 6 7 8 9 10 11 12 13 14 15 16 17 18 19 20 21 22 23 24 25 26 27 28 29 30 31 32 33 34 35 36 37 38 39 40 41 42 43 44 45 46 47 48 49 50
402
AXUS43 KLBF 250410
MISLBF


WESTERN AND NORTH CENTRAL NEBRASKA HOURLY WEATHER ROUNDUP
NATIONAL WEATHER SERVICE NORTH PLATTE NE
1100 PM CDT FRI MAR 24 2017

NOTE: "FAIR" INDICATES FEW OR NO CLOUDS BELOW 12,000 FEET WITH NO
SIGNIFICANT WEATHER AND/OR OBSTRUCTIONS TO VISIBILITY.

NOTE: STATIONS NOT REPORTING VARIABLES SUCH AS SKY/WEATHER OR
PRESSURE ARE PROVIDED BY RAWS AND APRS NETWORKS AND ARE NOT UNDER
NATIONAL WEATHER SERVICE QUALITY CONTROL.

...OBSERVATIONS IN AND NEAR THE EASTERN PANHANDLE OF NEBRASKA...

CITY           SKY/WX    TMP DP  RH WIND       PRES   REMARKS
PINE RIDGE     CLEAR     40  31  70 CALM      30.10S
CHADRON        CLEAR     43  30  60 S12       30.09S
ALLIANCE       CLEAR     35  27  72 SE6       30.11S WCI  30
SIDNEY         CLEAR     33  25  72 SE5       30.13S WCI  29
CRESCENT LAKE    N/A     41  30  64 E6          N/A
$$

...OBSERVATIONS IN NORTHERN NEBRASKA AND FAR SOUTHERN SOUTH DAKOTA...

CITY           SKY/WX    TMP DP  RH WIND       PRES   REMARKS
WINNER         FAIR      36  30  79 SE7       30.14R WCI  30
VALENTINE      CLEAR     35  27  72 E6        30.13R WCI  30
THEDFORD       CLEAR     38  32  76 N5        30.11F WCI  35
AINSWORTH      CLEAR     35  31  85 NE5       30.12S WCI  31
O`NEILL        CLOUDY    39  37  93 N9        30.10F WCI  33
ORD            CLOUDY    42  38  85 N9        30.06F
BROKEN BOW     CLOUDY    43  38  82 N16       30.06F
VALENTINE NWR    N/A     39  30  71 NE5         N/A
HALSEY           N/A     38  33  81 N3          N/A
BUTTE            N/A     35  33  91 NE8         N/A  WCI  28
CHAMBERS         N/A     40  38  94 N3          N/A
EWING            N/A     40  38  93 NE6G15      N/A
$$

...OBSERVATIONS IN SOUTHWEST NEBRASKA AND FAR NORTHEAST COLORADO...

CITY           SKY/WX    TMP DP  RH WIND       PRES   REMARKS
WRAY           FAIR      36  36 100 NW8       30.11S WCI  29
HOLYOKE        FAIR      37  34  87 NW7       30.12S WCI  32
IMPERIAL       MOCLDY    41  36  82 N7        30.10S
OGALLALA       CLEAR     37  32  81 N8        30.11S WCI  31
NORTH PLATTE   CLOUDY    43  36  76 N8        30.08F
MCCOOK         CLOUDY    42  40  92 N10       30.06F
LEXINGTON      CLOUDY    42  38  86 N13G21    30.05S
STAPLETON        N/A     37  33  84 CALM        N/A
GOTHENBURG       N/A     42  37  82 N10         N/A
CALLAWAY         N/A     41  39  92 NE7         N/A
$$

...OBSERVATIONS IN CENTRAL LINCOLN COUNTY AREA...

CITY           SKY/WX    TMP DP  RH WIND       PRES   REMARKS
N.P. AIRPORT   CLOUDY    43  36  76 N8        30.08F
N.P. DOWNTOWN    N/A     42  35  75 NW5         N/A
N.P. SOUTHEAST   N/A     42  34  73 N3          N/A
N.P. HILLCREST   N/A     39  33  80 N7          N/A  WCI  34
$$

...SOME OBSERVATIONS FROM AROUND THE REGION...

CITY           SKY/WX    TMP DP  RH WIND       PRES   REMARKS
DENVER         CLEAR     36  30  79 S9        30.15R WCI  29
LIMON          CLEAR     32  31  96 W7        30.15S WCI  26
ASPEN          CLOUDY    33  27  78 SW8       30.21R WCI  26
LARAMIE        CLOUDY    32  22  66 S9        30.13S WCI  24
GILLETTE       CLEAR     45  29  53 S15       29.95F
CHEYENNE       CLOUDY    35  24  64 SW7       30.14R WCI  29
SCOTTSBLUFF    CLEAR     36  28  73 E8        30.11S WCI  30
GRAND ISLAND   CLOUDY    40  40 100 N18       30.05S WCI  31
OMAHA          LGT RAIN  42  38  85 N18       30.00S
SIOUX FALLS    CLOUDY    38  34  85 NE15      30.13S WCI  29
PIERRE         CLEAR     34  30  85 SE3       30.14R
RAPID CITY     CLEAR     42  29  59 SE9       30.07R
BISMARCK       CLEAR     31  29  92 E8        30.15S WCI  23
KANSAS CITY    CLOUDY    57  56  96 N6        29.80F
HILL CITY      CLOUDY    42  40  92 N17G24    30.04S
WICHITA        LGT RAIN  52  49  89 N13       29.86R
DODGE CITY     CLOUDY    41  39  93 N22G30    29.99R
OKLAHOMA CITY  LGT RAIN  56  49  77 W8        29.73R
DALLAS         PTCLDY    73  38  27 W17       29.83R
AMARILLO       MOCLDY    44  37  76 NW21G33   30.06R
$$




USA.gov is the U.S. government's official web portal to all federal, state and local government web resources and services.